Date String (YYYY-MM-DD hh:mm:ss) UTC,Instrument flags,Ambient pressure (hPa),Sample flow (lpm),Bypass flow (lpm),Sample temperature (°C),Ambient temperature (°C),ASC tube jacket temperature (°C),LED temperature (°C),Box temperature (°C),Sample RH (%),Span deviation,Mass concentration (μg/m³),Mass concentration (μg/m³),Mass concentration (μg/m³)
DateTimeUTC,F1_M11,P_M11,Q1_M11,Q2_M11,T1_M11,T2_M11,T3_M11,T4_M11,T5_M11,U1_M11,ZSPAN_M11,X0_M11,X2_M11,X1_M11
2023-05-24 15:00:00,,0831.4,4.99,0.00,29.7,28.1,00.0,38.0,31.2,30.0,0003.2,0030.13,0020.15,0019.08
2023-05-24 15:01:00,,0831.4,5.00,0.00,29.7,28.1,00.0,38.0,31.3,30.5,0003.3,0029.95,0020.05,0019.02
2023-05-24 15:02:00,,0831.5,5.00,0.00,29.7,28.2,00.0,38.0,31.3,30.2,0003.3,0030.38,0019.98,0018.97
2023-05-24 15:03:00,,0831.4,5.00,0.00,29.7,28.2,00.0,38.0,31.3,30.2,0003.3,0030.76,0019.92,0018.90
2023-05-24 15:04:00,,0831.5,5.00,0.00,29.7,28.2,00.0,38.0,31.3,30.1,0003.2,0030.91,0019.85,0018.84
2023-05-24 15:05:00,,0831.4,5.01,0.00,29.7,28.2,00.0,38.0,31.3,30.5,0003.2,0030.99,0019.83,0018.81
2023-05-24 15:06:00,,0831.4,5.00,0.00,29.7,28.2,00.0,38.0,31.3,30.6,0003.2,0031.75,0019.84,0018.77
2023-05-24 15:07:00,,0831.5,5.00,0.00,29.8,28.3,00.0,38.1,31.4,30.6,0003.1,0031.93,0019.85,0018.76
2023-05-24 15:08:00,,0831.4,4.99,0.00,29.8,28.3,00.0,38.1,31.4,30.9,0003.1,0031.32,0019.81,0018.71
2023-05-24 15:09:00,,0831.5,5.00,0.00,29.8,28.3,00.0,38.1,31.4,30.9,0003.1,0031.19,0019.74,0018.65
2023-05-24 15:10:00,,0831.4,4.99,0.00,29.8,28.3,00.0,38.1,31.4,30.6,0003.1,0031.99,0019.71,0018.58
2023-05-24 15:11:00,,0831.4,5.00,0.00,29.8,28.3,00.0,38.1,31.4,29.8,0003.0,0032.64,0019.71,0018.56
2023-05-24 15:12:00,,0831.4,5.01,0.00,29.8,28.3,00.0,38.1,31.4,30.0,0002.9,0032.69,0019.71,0018.56
2023-05-24 15:13:00,,0831.4,5.00,0.00,29.8,28.3,00.0,38.1,31.4,30.5,0002.9,0032.51,0019.72,0018.56
2023-05-24 15:14:00,,0831.4,5.00,0.00,29.8,28.3,00.0,38.1,31.4,30.7,0002.9,0032.08,0019.73,0018.55
2023-05-24 15:15:00,,0831.4,5.00,0.00,29.8,28.3,00.0,38.1,31.4,30.3,0002.9,0032.31,0019.74,0018.55
2023-05-24 15:16:00,,0831.3,4.99,0.00,29.8,28.3,00.0,38.1,31.4,30.5,0002.9,0032.86,0019.72,0018.53
2023-05-24 15:17:00,,0831.3,4.99,0.00,29.8,28.3,00.0,38.1,31.4,30.6,0002.8,0031.97,0019.70,0018.54
2023-05-24 15:18:00,,0831.4,5.00,0.00,29.8,28.3,00.0,38.1,31.4,30.1,0002.8,0031.87,0019.82,0018.58
2023-05-24 15:19:00,,0831.3,5.00,0.00,29.9,28.3,00.0,38.2,31.4,30.0,0002.8,0031.71,0019.83,0018.61
2023-05-24 15:20:00,,0831.3,5.01,0.00,29.9,28.3,00.0,38.2,31.5,29.9,0002.9,0031.94,0019.89,0018.64
2023-05-24 15:21:00,,0831.3,5.01,0.00,29.9,28.4,00.0,38.2,31.5,29.9,0002.9,0031.59,0019.94,0018.69
2023-05-24 15:22:00,,0831.3,5.01,0.00,29.9,28.4,00.0,38.2,31.5,29.4,0002.9,0031.04,0019.97,0018.70
2023-05-24 15:23:00,,0831.4,5.00,0.00,29.9,28.4,00.0,38.2,31.5,29.8,0002.9,0031.19,0020.02,0018.72
2023-05-24 15:24:00,,0831.3,5.00,0.00,29.9,28.4,00.0,38.2,31.5,29.9,0002.9,0031.11,0020.11,0018.78
2023-05-24 15:25:00,,0831.3,5.01,0.00,29.9,28.4,00.0,38.2,31.5,30.4,0003.0,0031.05,0020.13,0018.81
2023-05-24 15:26:00,,0831.3,4.99,0.00,29.9,28.5,00.0,38.2,31.5,31.0,0003.1,0030.93,0020.20,0018.86
2023-05-24 15:27:00,,0831.3,4.99,0.00,30.0,28.5,00.0,38.2,31.6,31.0,0003.1,0029.98,0020.24,0018.89
2023-05-24 15:28:00,,0831.3,5.01,0.00,30.0,28.5,00.0,38.3,31.6,30.8,0003.1,0030.23,0020.27,0018.93
2023-05-24 15:29:00,,0831.3,5.01,0.00,30.0,28.5,00.0,38.3,31.6,30.3,0003.0,0030.28,0020.23,0018.98
2023-05-24 15:30:00,,0831.3,4.99,0.00,30.0,28.5,00.0,38.3,31.6,30.3,0003.0,0030.48,0020.25,0019.02
2023-05-24 15:31:00,,0831.3,4.99,0.00,30.0,28.5,00.0,38.3,31.6,30.3,0002.9,0031.10,0020.31,0019.07
2023-05-24 15:32:00,,0831.3,5.00,0.00,30.0,28.6,00.0,38.3,31.6,30.1,0002.8,0030.74,0020.30,0019.10
2023-05-24 15:33:00,,0831.3,5.00,0.00,30.0,28.6,00.0,38.3,31.7,30.1,0002.9,0030.59,0020.28,0019.15
2023-05-24 15:34:00,,0831.3,5.00,0.00,30.1,28.6,00.0,38.3,31.7,29.9,0003.0,0031.36,0020.28,0019.17
2023-05-24 15:35:00,,0831.3,5.00,0.00,30.1,28.6,00.0,38.3,31.7,29.8,0002.8,0032.05,0020.27,0019.17
2023-05-24 15:36:00,,0831.3,5.01,0.00,30.1,28.6,00.0,38.4,31.7,30.3,0002.8,0033.27,0020.29,0019.22
2023-05-24 15:37:00,,0831.3,5.01,0.00,30.1,28.7,00.0,38.4,31.7,30.1,0002.7,0035.18,0020.33,0019.22
2023-05-24 15:38:00,,0831.3,5.00,0.00,30.1,28.7,00.0,38.4,31.7,29.8,0002.7,0035.78,0020.37,0019.23
2023-05-24 15:39:00,,0831.3,4.99,0.00,30.1,28.7,00.0,38.4,31.7,28.9,0002.7,0035.76,0020.34,0019.25
2023-05-24 15:40:00,,0831.2,4.99,0.00,30.1,28.7,00.0,38.4,31.8,29.8,0002.9,0035.52,0020.36,0019.26
2023-05-24 15:41:00,,0831.2,4.99,0.00,30.2,28.7,00.0,38.4,31.8,29.9,0003.0,0035.47,0020.38,0019.28
2023-05-24 15:42:00,,0831.2,5.00,0.00,30.2,28.7,00.0,38.4,31.8,29.3,0003.1,0034.79,0020.35,0019.29
2023-05-24 15:43:00,,0831.2,5.01,0.00,30.2,28.5,00.0,38.4,31.8,28.4,0003.2,0034.88,0020.42,0019.32
2023-05-24 15:44:00,,0831.2,4.98,0.00,30.2,27.1,00.0,38.3,31.7,29.2,0003.2,0035.10,0020.45,0019.31
2023-05-24 15:45:00,,0831.2,5.01,0.00,30.1,26.1,00.0,38.3,31.5,29.2,0003.1,0034.62,0020.52,0019.34
2023-05-24 15:46:00,,0831.2,5.01,0.00,30.0,26.1,00.0,38.2,31.3,29.6,0003.1,0033.98,0020.57,0019.38
2023-05-24 15:47:00,,0831.2,5.00,0.00,29.9,26.3,00.0,38.2,31.3,29.2,0003.2,0033.22,0020.58,0019.40
2023-05-24 15:48:00,,0831.2,4.99,0.00,29.9,26.6,00.0,38.2,31.3,29.9,0003.1,0031.30,0020.57,0019.42
2023-05-24 15:49:00,,0831.1,4.99,0.00,29.9,26.9,00.0,38.2,31.3,30.0,0003.1,0031.08,0020.53,0019.44
2023-05-24 15:50:00,,0831.1,5.00,0.00,29.8,27.2,00.0,38.2,31.3,29.7,0003.1,0031.64,0020.58,0019.45
2023-05-24 15:51:00,,0831.1,5.00,0.00,29.8,27.4,00.0,38.2,31.4,29.4,0003.0,0031.96,0020.66,0019.48
2023-05-24 15:52:00,,0831.1,5.00,0.00,29.8,27.6,00.0,38.2,31.4,29.8,0002.9,0032.09,0020.70,0019.50
2023-05-24 15:53:00,,0831.1,5.00,0.00,29.8,27.7,00.0,38.2,31.4,30.7,0002.9,0032.21,0020.73,0019.50
2023-05-24 15:54:00,,0831.1,5.00,0.00,29.8,27.8,00.0,38.2,31.4,31.0,0002.9,0032.87,0020.75,0019.49
2023-05-24 15:55:00,,0831.1,4.99,0.00,29.8,27.9,00.0,38.2,31.4,31.2,0002.9,0033.24,0020.76,0019.50
2023-05-24 15:56:00,,0831.1,5.00,0.00,29.8,28.0,00.0,38.2,31.4,30.6,0003.0,0033.31,0020.77,0019.53
2023-05-24 15:57:00,,0831.1,5.00,0.00,29.8,28.1,00.0,38.2,31.4,31.0,0002.9,0033.28,0020.77,0019.53
2023-05-24 15:58:00,,0831.1,5.00,0.00,29.8,28.2,00.0,38.2,31.4,30.8,0002.9,0033.75,0020.77,0019.54
2023-05-24 15:59:00,,0831.1,5.00,0.00,29.9,28.2,00.0,38.2,31.5,31.1,0002.8,0034.18,0020.78,0019.52
